Location: Joplin, MO
(37.0842°N, 94.5133°W)
Time: 17:23:38
(UTC+02:00)

Vanguard 2 Rocket - Visible Passes

Search period start: 30 March 2023 00:00
Search period end: 09 April 2023 00:00
Orbit: 555 x 3315 km, 32.9° (Epoch: 30 March)

Date Brightness Start Highest point End Pass type
(mag) Time Alt. Az. Time Alt. Az. Time Alt. Az.
30 Mar 7.9 04:56:10 10° W 05:03:17 67° S 05:05:58 51° SE visible
30 Mar 9.5 07:08:41 10° W 07:11:38 24° W 07:11:38 24° W visible
31 Mar 7.6 03:56:02 10° W 04:02:03 66° S 04:08:20 24° ESE visible
31 Mar 8.6 06:08:06 10° W 06:13:59 47° SW 06:13:59 47° SW visible
01 Apr 7.3 02:56:01 10° WSW 03:01:07 60° S 03:09:44 10° E visible
01 Apr 8.0 05:07:46 10° W 05:14:44 59° S 05:16:21 54° SSE visible
01 Apr 9.8 07:20:35 10° W 07:22:02 16° W 07:22:02 16° W visible
02 Apr 7.6 04:07:35 10° W 04:13:29 62° S 04:18:43 28° ESE visible
02 Apr 8.9 06:19:49 10° W 06:24:23 34° WSW 06:24:23 34° WSW visible
03 Apr 7.3 03:07:30 10° WSW 03:12:32 62° S 03:21:01 10° E visible
03 Apr 8.2 05:19:22 10° W 05:26:08 49° SSW 05:26:45 48° S visible
04 Apr 7.7 04:19:08 10° W 04:24:54 54° S 04:29:07 31° SE visible
04 Apr 9.3 06:31:45 10° W 06:34:47 23° WSW 06:34:47 23° WSW visible
05 Apr 7.3 03:18:59 10° W 03:23:56 57° S 03:31:30 12° ESE visible
05 Apr 8.5 05:31:06 10° W 05:37:10 37° SSW 05:37:10 37° SSW visible
06 Apr 8.0 04:30:43 10° W 04:36:17 42° SSW 04:39:34 30° SSE visible
06 Apr 9.7 06:44:12 10° WSW 06:45:14 13° WSW 06:45:14 13° WSW visible
07 Apr 7.5 03:30:29 10° W 03:35:18 47° S 03:41:59 13° ESE visible
07 Apr 8.9 05:43:07 10° WSW 05:47:39 25° SW 05:47:39 25° SW visible
08 Apr 8.4 04:42:29 10° WSW 04:47:39 30° SSW 04:50:05 26° SSE visible
